"Pseudo-MPEC" for P10QBxB

Created 2019 Aug 19 10:07:03 UT using Find_Orb

Click here for an explanation of pseudo-MPECs

 
 Astrometry: 
     P10QBxB  C2019 08 11?Dfe*CN%E/'@AstrometryXyE+?O,lEATIlqLs(k=H0!k_'6HbWZF51
     P10QBxB  C2019 08 11bVe[+KM+mE_p7#BvJ/nrtocYPS[m0oUg5jL`qW-p$-tKJJ5v/h9BF51
     P10QBxB  C2019 08 11rlW?WLtxaJi\c_xAGLALwEaoAJ7ZFdM#)**X(EP,!@he%A,m(SjMF51
     P10QBxB  C2019 08 11n:Is+]?odCyn'1PLa7N'%maFSgn[t8ciRfb^I'-4$,\_=g2Y$:`]F51
     P10QBxB KC2019 08 12-!^`iRvcj_,w%n[NPB.OSHF@ZYxt@[[A?AdK=(V4m[]NdgJZOy3wL01
     P10QBxB KC2019 08 12-WY++Sredacted;AfO:b9fYA\6VOKmW5Z'J/[]a5kHP$KDQf,D,fL01
     P10QBxB KC2019 08 12fBVvq'C(q#/AfDX'Y#(clickT$^%5Ec3QOSM_)D@Lk)62J4EQnHQL01
     P10QBxB pC2019 08 12P/4\2#'u63$j:cs_]eO)U;-D`_8/jBeVG23)-Ip1m0NAI1Ai`$xfL01
     P10QBxB KC2019 08 12BbK4KhereoV7of8'yAforh#kypV'k%9fexplanationHyEGU1ir6L01
     P10QBxB ^C2019 08 12.53896503 04 48.244+17 06 00.89   ~8CHq 20.90GVNEOCP568
     P10QBxB ^C2019 08 12.54016403 04 48.299+17 06 03.99   ~8CHq 20.85GVNEOCP568
     P10QBxB ^C2019 08 12.54136203 04 48.355+17 06 07.09   ~8CHq 20.91GVNEOCP568

Station data:
(568) Mauna Kea  (N19.826116 W155.472200)  US/Hawaii.
(F51) Pan-STARRS 1, Haleakala  (N20.707235 W156.255910)  US/Hawaii.
   Observers N. Primak, A. Schultz, S. Watters, J. Thiel, T. Goggia. Measurer
   PS1 Science Consortium. 1.8-m Ritchey-Chrétien + CCD.
(L01) Višnjan Observatory, Tičan  (N45.290900 E13.749300)  Croatia.
   Observers K. Korlević, E. Pettarin. Measurer E. Pettarin. 1.0-m f/2.9
   reflector + CCD.

Orbital elements:  P10QBxB
   Perihelion 2019 Aug 4.973267 +/- 27 TT = 23:21:30 (JD 2458700.473267)
Epoch 2019 Aug 12.0 TT = JDT 2458707.5   Earth MOID: 0.4758   Ma: 0.0819
M   2.49946173 +/- 6                (J2000 ecliptic)          AutoNEOCP
n   0.35570749 +/- 0.202            Peri.  355.10439 +/- 340
a   1.97275900 +/- 0.747            Node     5.46586 +/- 3.3
e   0.2513185 +/- 0.262             Incl.   48.23656 +/- 4.8
P   2.77                   H 18.7   G  0.15   U 11.7  
q 1.47696804 +/- 0.088    Q 2.46854996 +/- 2.93
From 12 observations 2019 Aug. 11-12 (23.1 hr); mean residual 0".16
Residuals in arcseconds: 
190811 F51  .20+  .01+    190812 L01  .17-  .34+    190812 L01  .26-  .30-    
190811 F51  .02-  .07+    190812 L01  .39+  .16-    190812 568  .01+  .01-    
190811 F51  .08-  .01-    190812 L01  .04-  .24+    190812 568  .01+  .00     
190811 F51  .08-  .10-    190812 L01  .01+  .09-    190812 568  .02+  .00     

Ephemerides (geocentric):
Date (UTC) HH   RA              Dec         delta   r     elong  mag " sig PA
---- -- -- --  -------------   -----------  ------ ------ -----  --- ---- ---
2019 08 19 10  03 09 47.735   +22 15 06.13  0.9999 1.4805  94.8 21.2  129  26
2019 08 19 11  03 09 49.332   +22 17 03.90  0.9996 1.4805  94.8 21.2  130  26
2019 08 19 12  03 09 50.926   +22 19 01.74  0.9992 1.4806  94.8 21.2  132  26
2019 08 19 13  03 09 52.517   +22 20 59.64  0.9988 1.4806  94.8 21.2  133  26
2019 08 19 14  03 09 54.105   +22 22 57.61  0.9984 1.4806  94.9 21.2  135  26
2019 08 19 15  03 09 55.690   +22 24 55.65  0.9981 1.4806  94.9 21.2  136  26
2019 08 19 16  03 09 57.272   +22 26 53.76  0.9977 1.4806  94.9 21.2  138  26
2019 08 19 17  03 09 58.852   +22 28 51.93  0.9973 1.4807  94.9 21.2  139  26
2019 08 19 18  03 10 00.428   +22 30 50.17  0.9970 1.4807  95.0 21.2  141  26
2019 08 19 19  03 10 02.001   +22 32 48.48  0.9966 1.4807  95.0 21.2  142  26
2019 08 19 20  03 10 03.572   +22 34 46.86  0.9962 1.4807  95.0 21.2  144  26
2019 08 19 21  03 10 05.139   +22 36 45.30  0.9959 1.4807  95.0 21.2  146  26
2019 08 19 22  03 10 06.704   +22 38 43.81  0.9955 1.4808  95.1 21.2  147  26
2019 08 19 23  03 10 08.265   +22 40 42.38  0.9951 1.4808  95.1 21.2  149  26
2019 08 20 00  03 10 09.824   +22 42 41.03  0.9948 1.4808  95.1 21.2  150  26
2019 08 20 01  03 10 11.380   +22 44 39.74  0.9944 1.4808  95.1 21.2  152  26
2019 08 20 02  03 10 12.932   +22 46 38.52  0.9940 1.4808  95.2 21.2  154  26
2019 08 20 03  03 10 14.482   +22 48 37.36  0.9937 1.4809  95.2 21.2  155  26
2019 08 20 04  03 10 16.029   +22 50 36.28  0.9933 1.4809  95.2 21.2  157  26
2019 08 20 05  03 10 17.572   +22 52 35.26  0.9929 1.4809  95.2 21.2  159  26
2019 08 20 06  03 10 19.113   +22 54 34.31  0.9926 1.4809  95.3 21.2  160  26
2019 08 20 07  03 10 20.650   +22 56 33.42  0.9922 1.4810  95.3 21.2  162  26
2019 08 20 08  03 10 22.185   +22 58 32.61  0.9918 1.4810  95.3 21.2  164  26
2019 08 20 09  03 10 23.717   +23 00 31.86  0.9915 1.4810  95.3 21.2  165  26
2019 08 20 10  03 10 25.245   +23 02 31.18  0.9911 1.4810  95.4 21.2  167  26
2019 08 20 11  03 10 26.771   +23 04 30.56  0.9907 1.4810  95.4 21.2  169  26
2019 08 20 12  03 10 28.293   +23 06 30.02  0.9904 1.4811  95.4 21.2  171  26
2019 08 20 13  03 10 29.813   +23 08 29.54  0.9900 1.4811  95.4 21.2  172  26
2019 08 20 14  03 10 31.329   +23 10 29.13  .98964 1.4811  95.5 21.2  174  26
2019 08 20 15  03 10 32.842   +23 12 28.79  .98928 1.4811  95.5 21.2  176  26
2019 08 20 16  03 10 34.353   +23 14 28.51  .98891 1.4811  95.5 21.2  178  26
2019 08 20 17  03 10 35.860   +23 16 28.30  .98855 1.4812  95.5 21.2  179  26
2019 08 20 18  03 10 37.364   +23 18 28.16  .98819 1.4812  95.6 21.2  181  26
2019 08 20 19  03 10 38.865   +23 20 28.09  .98782 1.4812  95.6 21.2  183  26
2019 08 20 20  03 10 40.363   +23 22 28.09  .98746 1.4812  95.6 21.2  185  26
2019 08 20 21  03 10 41.858   +23 24 28.15  .98710 1.4813  95.6 21.2  187  26
2019 08 20 22  03 10 43.350   +23 26 28.28  .98673 1.4813  95.7 21.2  188  26
2019 08 20 23  03 10 44.838   +23 28 28.48  .98637 1.4813  95.7 21.2  190  26
2019 08 21 00  03 10 46.324   +23 30 28.75  .98601 1.4813  95.7 21.2  192  26
2019 08 21 01  03 10 47.806   +23 32 29.08  .98565 1.4814  95.7 21.2  194  26
2019 08 21 02  03 10 49.286   +23 34 29.48  .98528 1.4814  95.8 21.2  196  26
2019 08 21 03  03 10 50.762   +23 36 29.95  .98492 1.4814  95.8 21.2  198  26
2019 08 21 04  03 10 52.235   +23 38 30.49  .98456 1.4814  95.8 21.2  200  26
2019 08 21 05  03 10 53.705   +23 40 31.10  .98420 1.4814  95.8 21.2  201  26
2019 08 21 06  03 10 55.172   +23 42 31.77  .98384 1.4815  95.9 21.2  203  26
2019 08 21 07  03 10 56.636   +23 44 32.51  .98348 1.4815  95.9 21.2  205  26
2019 08 21 08  03 10 58.096   +23 46 33.32  .98312 1.4815  95.9 21.2  207  26
2019 08 21 09  03 10 59.554   +23 48 34.20  .98276 1.4815  95.9 21.2  209  26